Flag for Vietnam Weather past 2 weeks in Ho Chi Minh, Vietnam

Now
90 °F

Scattered clouds.


Feels Like: 98 °F
Forecast: 75 / 91 °F
Wind: 1 mph from North

Location: Ho Chi Minh

Current Time: Oct 2, 2014 at 11:51:39 AM

Latest Report: Oct 2, 2014 at 11:30 AM


Visibility: N/A

Pressure: 29.80 "Hg

Humidity: 59%

Dew point: 73 °F

Location of Ho Chi MinhLocation

Historic Weather in Ho Chi Minh — Graph

°F

Ho Chi Minh temperature yesterday

Maximum temperature yesterday: 93 °F (at 12:00 PM)
Minimum temperature yesterday: 75 °F (at 2:30 PM)
Average temperature yesterday: 81 °F

Past Weeks' High & Low Weather Summary

 TemperatureHumidityPressure
High95 °F (Sep 29, 12:30 PM)94% (Sep 18, 1:00 AM)29.92 "Hg (Sep 18, 1:00 AM)
Low73 °F (Sep 18, 5:00 AM)47% (Sep 29, 12:30 PM)29.68 "Hg (Sep 20, 2:30 PM)
Average83 °F76%29.82 "Hg
* Reported Sep 17 10:00 AM — Oct 2 10:30 AM, Ho Chi Minh, Weather by CustomWeather, © 2014

Note: Actual official high and low records may vary slightly from our data, if they occured in-between our weather recording intervals... More about our weather records

Advertising

Ho Chi Minh weather history for previous 24 hours

 ConditionsComfort  
Time TempWeatherWind HumidityBarometerVisibility
10:30 AM
Oct 2
90 °FScattered clouds.5 mph63%29.86 "HgN/A
10:00 AM90 °FScattered clouds.5 mph59%29.86 "HgN/A
9:30 AM88 °FScattered clouds.5 mph66%29.86 "HgN/A
9:00 AM86 °FScattered clouds.5 mph70%29.86 "HgN/A
8:30 AM84 °FPassing clouds.5 mph74%29.86 "HgN/A
8:00 AM82 °FPassing clouds.5 mph79%29.86 "Hg5 mi
7:30 AM82 °FFog.5 mph79%29.86 "Hg3 mi
7:00 AM81 °FFog.3 mph84%29.86 "Hg2 mi
6:30 AM79 °FFog.3 mph89%29.83 "Hg3 mi
6:00 AM77 °FScattered clouds.2 mph89%29.83 "Hg4 mi
5:30 AM75 °FClear.2 mph94%29.83 "Hg4 mi
5:00 AM77 °FPassing clouds.1 mph89%29.80 "Hg4 mi
4:30 AM77 °FPassing clouds.No wind89%29.80 "Hg4 mi
4:00 AM77 °FPassing clouds.1 mph89%29.80 "Hg4 mi
3:30 AM77 °FPassing clouds.1 mph89%29.80 "Hg4 mi
3:00 AM77 °FPassing clouds.No wind89%29.80 "HgN/A
2:30 AM77 °FPassing clouds.1 mph89%29.80 "HgN/A
2:00 AM77 °FPassing clouds.1 mph89%29.83 "HgN/A
1:30 AM77 °FPassing clouds.2 mph89%29.83 "HgN/A
1:00 AM77 °FPassing clouds.1 mph89%29.83 "HgN/A
12:30 AM77 °FPassing clouds.3 mph89%29.83 "HgN/A
12:00 AM77 °FPassing clouds.1 mph94%29.83 "HgN/A
11:30 PM
Oct 1
79 °FPassing clouds.1 mph84%29.83 "HgN/A
11:00 PM79 °FPassing clouds.2 mph84%29.86 "HgN/A
10:30 PM79 °FPassing clouds.2 mph84%29.86 "HgN/A
10:00 PM79 °FPassing clouds.2 mph84%29.86 "HgN/A
9:30 PM81 °FPassing clouds.No wind79%29.86 "HgN/A
9:00 PM79 °FPassing clouds.No wind84%29.86 "HgN/A
8:30 PM77 °FPassing clouds.No wind89%29.83 "HgN/A
8:00 PM77 °FPassing clouds.No wind89%29.83 "HgN/A
7:30 PM77 °FPassing clouds.1 mph89%29.83 "HgN/A
7:00 PM77 °FPassing clouds.1 mph89%29.80 "HgN/A
6:30 PM77 °FPassing clouds.1 mph83%29.80 "HgN/A
6:00 PM77 °FPartly cloudy.2 mph89%29.80 "HgN/A
5:30 PM77 °FBroken clouds.5 mph83%29.80 "HgN/A
5:00 PM75 °FBroken clouds.7 mph94%29.80 "HgN/A
4:30 PM77 °FBroken clouds.8 mph83%29.80 "HgN/A
4:00 PM77 °FThunderstorms. Broken clouds.6 mph83%29.77 "Hg5 mi
3:30 PM75 °FThunderstorms. Broken clouds.9 mph89%29.74 "Hg4 mi
3:00 PM77 °FThunderstorms. Broken clouds.12 mph83%29.77 "Hg5 mi
2:30 PM75 °FThunderstorms. Broken clouds.10 mph89%29.74 "Hg4 mi
2:00 PM82 °FSprinkles. Broken clouds.16 mph74%29.74 "Hg3 mi
1:30 PM91 °FScattered clouds.5 mph49%29.74 "HgN/A
1:00 PM93 °FScattered clouds.6 mph47%29.77 "HgN/A
12:30 PM93 °FScattered clouds.6 mph47%29.80 "HgN/A
12:00 PM93 °FScattered clouds.6 mph47%29.80 "HgN/A
11:30 AM91 °FScattered clouds.5 mph49%29.83 "HgN/A
11:00 AM90 °FScattered clouds.6 mph55%29.83 "HgN/A
Weather by CustomWeather, © 2014

See weather overviewHow to use our weather pages